Year,Month,Day,Hour,Minute,Value (Times are PST for temperature in C)
2015,09,23,00,00,10.20
2015,09,23,00,01,10.20
2015,09,23,00,02,10.20
2015,09,23,00,03,10.20
2015,09,23,00,04,10.20
2015,09,23,00,05,10.10
2015,09,23,00,06,10.10
2015,09,23,00,07,10.00
2015,09,23,00,08,10.00
2015,09,23,00,09,9.90
2015,09,23,00,10,9.90
2015,09,23,00,11,9.80
2015,09,23,00,12,9.80
2015,09,23,00,13,9.80
2015,09,23,00,14,9.80
2015,09,23,00,15,9.70
2015,09,23,00,16,9.70
2015,09,23,00,17,9.70
2015,09,23,00,18,9.70
2015,09,23,00,19,9.70
2015,09,23,00,20,9.70
2015,09,23,00,21,9.70
2015,09,23,00,22,9.60
2015,09,23,00,23,9.60
2015,09,23,00,24,9.60
2015,09,23,00,25,9.60
2015,09,23,00,26,9.60
2015,09,23,00,27,9.60
2015,09,23,00,28,9.60
2015,09,23,00,29,9.60
2015,09,23,00,30,9.60
2015,09,23,00,31,9.60
2015,09,23,00,32,9.60
2015,09,23,00,33,9.60
2015,09,23,00,34,9.60
2015,09,23,00,35,9.60
2015,09,23,00,36,9.60
2015,09,23,00,37,9.60
2015,09,23,00,38,9.60
2015,09,23,00,39,9.60
2015,09,23,00,40,9.60
2015,09,23,00,41,9.60
2015,09,23,00,42,9.60
2015,09,23,00,43,9.50
2015,09,23,00,44,9.50
2015,09,23,00,45,9.50
2015,09,23,00,46,9.50
2015,09,23,00,47,9.50
2015,09,23,00,48,9.50
2015,09,23,00,49,9.50
2015,09,23,00,50,9.50
2015,09,23,00,51,9.50
2015,09,23,00,52,9.50
2015,09,23,00,53,9.50
2015,09,23,00,54,9.50
2015,09,23,00,55,9.40
2015,09,23,00,56,9.40
2015,09,23,00,57,9.40
2015,09,23,00,58,9.40
2015,09,23,00,59,9.40
2015,09,23,01,00,9.40
2015,09,23,01,01,9.40
2015,09,23,01,02,9.40
2015,09,23,01,03,9.40
2015,09,23,01,04,9.40
2015,09,23,01,05,9.40
2015,09,23,01,06,9.40
2015,09,23,01,07,9.40
2015,09,23,01,08,9.30
2015,09,23,01,09,9.30
2015,09,23,01,10,9.30
2015,09,23,01,11,9.30
2015,09,23,01,12,9.30
2015,09,23,01,13,9.30
2015,09,23,01,14,9.30
2015,09,23,01,15,9.30
2015,09,23,01,16,9.30
2015,09,23,01,17,9.30
2015,09,23,01,18,9.30
2015,09,23,01,19,9.30
2015,09,23,01,20,9.30
2015,09,23,01,21,9.30
2015,09,23,01,22,9.30
2015,09,23,01,23,9.30
2015,09,23,01,24,9.30
2015,09,23,01,25,9.30
2015,09,23,01,26,9.30
2015,09,23,01,27,9.20
2015,09,23,01,28,9.20
2015,09,23,01,29,9.20
2015,09,23,01,30,9.20
2015,09,23,01,31,9.20
2015,09,23,01,32,9.20
2015,09,23,01,33,9.20
2015,09,23,01,34,9.20
2015,09,23,01,35,9.20
2015,09,23,01,36,9.20
2015,09,23,01,37,9.20
2015,09,23,01,38,9.20
2015,09,23,01,39,9.10
2015,09,23,01,40,9.20
2015,09,23,01,41,9.20
2015,09,23,01,42,9.10
2015,09,23,01,43,9.10
2015,09,23,01,44,9.20
2015,09,23,01,45,9.20
2015,09,23,01,46,9.20
2015,09,23,01,47,9.20
2015,09,23,01,48,9.20
2015,09,23,01,49,9.10
2015,09,23,01,50,9.10
2015,09,23,01,51,9.10
2015,09,23,01,52,9.10
2015,09,23,01,53,9.10
2015,09,23,01,54,9.10
2015,09,23,01,55,9.00
2015,09,23,01,56,9.00
2015,09,23,01,57,9.00
2015,09,23,01,58,8.90
2015,09,23,01,59,8.90
2015,09,23,02,00,8.90
2015,09,23,02,01,8.90
2015,09,23,02,02,8.90
2015,09,23,02,03,8.90
2015,09,23,02,04,8.90
2015,09,23,02,05,8.80
2015,09,23,02,06,8.90
2015,09,23,02,07,8.90
2015,09,23,02,08,8.90
2015,09,23,02,09,8.90
2015,09,23,02,10,8.90
2015,09,23,02,11,9.00
2015,09,23,02,12,9.00
2015,09,23,02,13,9.00
2015,09,23,02,14,8.90
2015,09,23,02,15,8.90
2015,09,23,02,16,8.90
2015,09,23,02,17,8.90
2015,09,23,02,18,8.90
2015,09,23,02,19,8.90
2015,09,23,02,20,8.90
2015,09,23,02,21,8.90
2015,09,23,02,22,9.00
2015,09,23,02,23,9.00
2015,09,23,02,24,8.90
2015,09,23,02,25,8.90
2015,09,23,02,26,8.90
2015,09,23,02,27,8.90
2015,09,23,02,28,8.90
2015,09,23,02,29,8.90
2015,09,23,02,30,8.90
2015,09,23,02,31,8.90
2015,09,23,02,32,8.90
2015,09,23,02,33,8.90
2015,09,23,02,34,8.90
2015,09,23,02,35,9.00
2015,09,23,02,36,9.00
2015,09,23,02,37,8.90
2015,09,23,02,38,8.90
2015,09,23,02,39,8.90
2015,09,23,02,40,8.90
2015,09,23,02,41,8.90
2015,09,23,02,42,8.80
2015,09,23,02,43,8.80
2015,09,23,02,44,8.80
2015,09,23,02,45,8.80
2015,09,23,02,46,8.80
2015,09,23,02,47,8.90
2015,09,23,02,48,8.90
2015,09,23,02,49,8.90
2015,09,23,02,50,9.00
2015,09,23,02,51,9.00
2015,09,23,02,52,9.10
2015,09,23,02,53,9.10
2015,09,23,02,54,9.10
2015,09,23,02,55,9.10
2015,09,23,02,56,9.20
2015,09,23,02,57,9.20
2015,09,23,02,58,9.20
2015,09,23,02,59,9.10
2015,09,23,03,00,9.10
2015,09,23,03,01,9.10
2015,09,23,03,02,9.10
2015,09,23,03,03,9.10
2015,09,23,03,04,9.10
2015,09,23,03,05,9.10
2015,09,23,03,06,9.00
2015,09,23,03,07,9.00
2015,09,23,03,08,9.00
2015,09,23,03,09,8.90
2015,09,23,03,10,8.90
2015,09,23,03,11,8.90
2015,09,23,03,12,8.90
2015,09,23,03,13,8.80
2015,09,23,03,14,8.80
2015,09,23,03,15,8.80
2015,09,23,03,16,8.80
2015,09,23,03,17,8.80
2015,09,23,03,18,8.80
2015,09,23,03,19,8.80
2015,09,23,03,20,8.80
2015,09,23,03,21,8.80
2015,09,23,03,22,8.90
2015,09,23,03,23,9.00
2015,09,23,03,24,9.00
2015,09,23,03,25,9.10
2015,09,23,03,26,9.20
2015,09,23,03,27,9.30
2015,09,23,03,28,9.40
2015,09,23,03,29,9.40
2015,09,23,03,30,9.50
2015,09,23,03,31,9.50
2015,09,23,03,32,9.60
2015,09,23,03,33,9.60
2015,09,23,03,34,9.60
2015,09,23,03,35,9.70
2015,09,23,03,36,9.70
2015,09,23,03,37,9.70
2015,09,23,03,38,9.70
2015,09,23,03,39,9.80
2015,09,23,03,40,9.80
2015,09,23,03,41,9.80
2015,09,23,03,42,9.80
2015,09,23,03,43,9.80
2015,09,23,03,44,9.80
2015,09,23,03,45,9.80
2015,09,23,03,46,9.80
2015,09,23,03,47,9.80
2015,09,23,03,48,9.80
2015,09,23,03,49,9.80
2015,09,23,03,50,9.80
2015,09,23,03,51,9.80
2015,09,23,03,52,9.80
2015,09,23,03,53,9.80
2015,09,23,03,54,9.80
2015,09,23,03,55,9.80
2015,09,23,03,56,9.80
2015,09,23,03,57,9.70
2015,09,23,03,58,9.70
2015,09,23,03,59,9.60
2015,09,23,04,00,9.60
2015,09,23,04,01,9.50
2015,09,23,04,02,9.50
2015,09,23,04,03,9.40
2015,09,23,04,04,9.40
2015,09,23,04,05,9.40
2015,09,23,04,06,9.40
2015,09,23,04,07,9.40
2015,09,23,04,08,9.30
2015,09,23,04,09,9.30
2015,09,23,04,10,9.30
2015,09,23,04,11,9.30
2015,09,23,04,12,9.30
2015,09,23,04,13,9.30
2015,09,23,04,14,9.30
2015,09,23,04,15,9.30
2015,09,23,04,16,9.40
2015,09,23,04,17,9.40
2015,09,23,04,18,9.40
2015,09,23,04,19,9.40
2015,09,23,04,20,9.40
2015,09,23,04,21,9.50
2015,09,23,04,22,9.50
2015,09,23,04,23,9.50
2015,09,23,04,24,9.50
2015,09,23,04,25,9.50
2015,09,23,04,26,9.60
2015,09,23,04,27,9.60
2015,09,23,04,28,9.60
2015,09,23,04,29,9.60
2015,09,23,04,30,9.60
2015,09,23,04,31,9.70
2015,09,23,04,32,9.70
2015,09,23,04,33,9.70
2015,09,23,04,34,9.70
2015,09,23,04,35,9.80
2015,09,23,04,36,9.80
2015,09,23,04,37,9.90
2015,09,23,04,38,9.90
2015,09,23,04,39,9.90
2015,09,23,04,40,10.00
2015,09,23,04,41,10.00
2015,09,23,04,42,10.10
2015,09,23,04,43,10.10
2015,09,23,04,44,10.20
2015,09,23,04,45,10.20
2015,09,23,04,46,10.20
2015,09,23,04,47,10.30
2015,09,23,04,48,10.30
2015,09,23,04,49,10.30
2015,09,23,04,50,10.30
2015,09,23,04,51,10.40
2015,09,23,04,52,10.40
2015,09,23,04,53,10.40
2015,09,23,04,54,10.40
2015,09,23,04,55,10.40
2015,09,23,04,56,10.40
2015,09,23,04,57,10.50
2015,09,23,04,58,10.50
2015,09,23,04,59,10.50
2015,09,23,05,00,10.50
2015,09,23,05,01,10.50
2015,09,23,05,02,10.50
2015,09,23,05,03,10.50
2015,09,23,05,04,10.50
2015,09,23,05,05,10.50
2015,09,23,05,06,10.50
2015,09,23,05,07,10.50
2015,09,23,05,08,10.50
2015,09,23,05,09,10.50
2015,09,23,05,10,10.50
2015,09,23,05,11,10.60
2015,09,23,05,12,10.50
2015,09,23,05,13,10.60
2015,09,23,05,14,10.60
2015,09,23,05,15,10.60
2015,09,23,05,16,10.60
2015,09,23,05,17,10.60
2015,09,23,05,18,10.60
2015,09,23,05,19,10.60
2015,09,23,05,20,10.50
2015,09,23,05,21,10.50
2015,09,23,05,22,10.50
2015,09,23,05,23,10.50
2015,09,23,05,24,10.50
2015,09,23,05,25,10.40
2015,09,23,05,26,10.40
2015,09,23,05,27,10.40
2015,09,23,05,28,10.40
2015,09,23,05,29,10.40
2015,09,23,05,30,10.40
2015,09,23,05,31,10.40
2015,09,23,05,32,10.40
2015,09,23,05,33,10.40
2015,09,23,05,34,10.40
2015,09,23,05,35,10.40
2015,09,23,05,36,10.30
2015,09,23,05,37,10.30
2015,09,23,05,38,10.30
2015,09,23,05,39,10.30
2015,09,23,05,40,10.30
2015,09,23,05,41,10.30
2015,09,23,05,42,10.20
2015,09,23,05,43,10.20
2015,09,23,05,44,10.20
2015,09,23,05,45,10.20
2015,09,23,05,46,10.20
2015,09,23,05,47,10.10
2015,09,23,05,48,10.10
2015,09,23,05,49,10.00
2015,09,23,05,50,10.00
2015,09,23,05,51,9.90
2015,09,23,05,52,9.90
2015,09,23,05,53,9.90
2015,09,23,05,54,9.80
2015,09,23,05,55,9.80
2015,09,23,05,56,9.80
2015,09,23,05,57,9.80
2015,09,23,05,58,9.80
2015,09,23,05,59,9.80
2015,09,23,06,00,9.80
2015,09,23,06,01,9.80
2015,09,23,06,02,9.80
2015,09,23,06,03,9.80
2015,09,23,06,04,9.80
2015,09,23,06,05,9.70
2015,09,23,06,06,9.70
2015,09,23,06,07,9.70
2015,09,23,06,08,9.70
2015,09,23,06,09,9.60
2015,09,23,06,10,9.60
2015,09,23,06,11,9.60
2015,09,23,06,12,9.60
2015,09,23,06,13,9.60
2015,09,23,06,14,9.50
2015,09,23,06,15,9.50
2015,09,23,06,16,9.40
2015,09,23,06,17,9.40
2015,09,23,06,18,9.40
2015,09,23,06,19,9.30
2015,09,23,06,20,9.30
2015,09,23,06,21,9.20
2015,09,23,06,22,9.20
2015,09,23,06,23,9.20
2015,09,23,06,24,9.20
2015,09,23,06,25,9.20
2015,09,23,06,26,9.20
2015,09,23,06,27,9.20
2015,09,23,06,28,9.10
2015,09,23,06,29,9.10
2015,09,23,06,30,9.10
2015,09,23,06,31,9.10
2015,09,23,06,32,9.10
2015,09,23,06,33,9.10
2015,09,23,06,34,9.00
2015,09,23,06,35,9.00
2015,09,23,06,36,9.00
2015,09,23,06,37,8.90
2015,09,23,06,38,8.90
2015,09,23,06,39,8.90
2015,09,23,06,40,8.90
2015,09,23,06,41,8.90
2015,09,23,06,42,8.90
2015,09,23,06,43,8.80
2015,09,23,06,44,8.80
2015,09,23,06,45,8.80
2015,09,23,06,46,8.80
2015,09,23,06,47,8.80
2015,09,23,06,48,8.80
2015,09,23,06,49,8.80
2015,09,23,06,50,8.70
2015,09,23,06,51,8.70
2015,09,23,06,52,8.70
2015,09,23,06,53,8.70
2015,09,23,06,54,8.70
2015,09,23,06,55,8.70
2015,09,23,06,56,8.70
2015,09,23,06,57,8.70
2015,09,23,06,58,8.70
2015,09,23,06,59,8.70
2015,09,23,07,00,8.60
2015,09,23,07,01,8.60
2015,09,23,07,02,8.60
2015,09,23,07,03,8.60
2015,09,23,07,04,8.60
2015,09,23,07,05,8.50
2015,09,23,07,06,8.50
2015,09,23,07,07,8.40
2015,09,23,07,08,8.40
2015,09,23,07,09,8.40
2015,09,23,07,10,8.40
2015,09,23,07,11,8.40
2015,09,23,07,12,8.40
2015,09,23,07,13,8.40
2015,09,23,07,14,8.40
2015,09,23,07,15,8.30
2015,09,23,07,16,8.30
2015,09,23,07,17,8.30
2015,09,23,07,18,8.30
2015,09,23,07,19,8.30
2015,09,23,07,20,8.30
2015,09,23,07,21,8.30
2015,09,23,07,22,8.30
2015,09,23,07,23,8.30
2015,09,23,07,24,8.40
2015,09,23,07,25,8.40
2015,09,23,07,26,8.40
2015,09,23,07,27,8.40
2015,09,23,07,28,8.40
2015,09,23,07,29,8.40
2015,09,23,07,30,8.40
2015,09,23,07,31,8.40
2015,09,23,07,32,8.40
2015,09,23,07,33,8.50
2015,09,23,07,34,8.50
2015,09,23,07,35,8.50
2015,09,23,07,36,8.50
2015,09,23,07,37,8.50
2015,09,23,07,38,8.50
2015,09,23,07,39,8.50
2015,09,23,07,40,8.50
2015,09,23,07,41,8.60
2015,09,23,07,42,8.60
2015,09,23,07,43,8.60
2015,09,23,07,44,8.60
2015,09,23,07,45,8.60
2015,09,23,07,46,8.70
2015,09,23,07,47,8.70
2015,09,23,07,48,8.70
2015,09,23,07,49,8.70
2015,09,23,07,50,8.70
2015,09,23,07,51,8.70
2015,09,23,07,52,8.80
2015,09,23,07,53,8.80
2015,09,23,07,54,8.80
2015,09,23,07,55,8.80
2015,09,23,07,56,8.80
2015,09,23,07,57,8.80
2015,09,23,07,58,8.90
2015,09,23,07,59,8.90
2015,09,23,08,00,9.00
2015,09,23,08,01,9.10
2015,09,23,08,02,9.10
2015,09,23,08,03,9.20
2015,09,23,08,04,9.20
2015,09,23,08,05,9.30
2015,09,23,08,06,9.30
2015,09,23,08,07,9.40
2015,09,23,08,08,9.50
2015,09,23,08,09,9.60
2015,09,23,08,10,9.60
2015,09,23,08,11,9.70
2015,09,23,08,12,9.80
2015,09,23,08,13,9.90
2015,09,23,08,14,10.00
2015,09,23,08,15,10.10
2015,09,23,08,16,10.20
2015,09,23,08,17,10.30
2015,09,23,08,18,10.40
2015,09,23,08,19,10.50
2015,09,23,08,20,10.60
2015,09,23,08,21,10.70
2015,09,23,08,22,10.70
2015,09,23,08,23,10.80
2015,09,23,08,24,10.80
2015,09,23,08,25,10.90
2015,09,23,08,26,11.00
2015,09,23,08,27,11.00
2015,09,23,08,28,11.10
2015,09,23,08,29,11.10
2015,09,23,08,30,11.10
2015,09,23,08,31,11.20
2015,09,23,08,32,11.20
2015,09,23,08,33,11.20
2015,09,23,08,34,11.30
2015,09,23,08,35,11.30
2015,09,23,08,36,11.30
2015,09,23,08,37,11.30
2015,09,23,08,38,11.30
2015,09,23,08,39,11.30
2015,09,23,08,40,11.30
2015,09,23,08,41,11.30
2015,09,23,08,42,11.40
2015,09,23,08,43,11.40
2015,09,23,08,44,11.40
2015,09,23,08,45,11.40
2015,09,23,08,46,11.40
2015,09,23,08,47,11.50
2015,09,23,08,48,11.50
2015,09,23,08,49,11.50
2015,09,23,08,50,11.50
2015,09,23,08,51,11.50
2015,09,23,08,52,11.50
2015,09,23,08,53,11.50
2015,09,23,08,54,11.50
2015,09,23,08,55,11.50
2015,09,23,08,56,11.50
2015,09,23,08,57,11.50
2015,09,23,08,58,11.50
2015,09,23,08,59,11.50
2015,09,23,09,00,11.50
2015,09,23,09,01,11.40
2015,09,23,09,02,11.40
2015,09,23,09,03,11.40
2015,09,23,09,04,11.40
2015,09,23,09,05,11.40
2015,09,23,09,06,11.40
2015,09,23,09,07,11.40
2015,09,23,09,08,11.40
2015,09,23,09,09,11.40
2015,09,23,09,10,11.40
2015,09,23,09,11,11.40
2015,09,23,09,12,11.40
2015,09,23,09,13,11.40
2015,09,23,09,14,11.40
2015,09,23,09,15,11.40
2015,09,23,09,16,11.40
2015,09,23,09,17,11.40
2015,09,23,09,18,11.40
2015,09,23,09,19,11.40
2015,09,23,09,20,11.50
2015,09,23,09,21,11.50
2015,09,23,09,22,11.50
2015,09,23,09,23,11.50
2015,09,23,09,24,11.50
2015,09,23,09,25,11.50
2015,09,23,09,26,11.50
2015,09,23,09,27,11.50
2015,09,23,09,28,11.40
2015,09,23,09,29,11.40
2015,09,23,09,30,11.40
2015,09,23,09,31,11.40
2015,09,23,09,32,11.40
2015,09,23,09,33,11.40
2015,09,23,09,34,11.50
2015,09,23,09,35,11.50
2015,09,23,09,36,11.50
2015,09,23,09,37,11.50
2015,09,23,09,38,11.50
2015,09,23,09,39,11.60
2015,09,23,09,40,11.60
2015,09,23,09,41,11.60
2015,09,23,09,42,11.70
2015,09,23,09,43,11.70
2015,09,23,09,44,11.70
2015,09,23,09,45,11.80
2015,09,23,09,46,11.80
2015,09,23,09,47,11.80
2015,09,23,09,48,11.80
2015,09,23,09,49,11.80
2015,09,23,09,50,11.80
2015,09,23,09,51,11.80
2015,09,23,09,52,11.80
2015,09,23,09,53,11.80
2015,09,23,09,54,11.80
2015,09,23,09,55,11.80
2015,09,23,09,56,11.80
2015,09,23,09,57,11.80
2015,09,23,09,58,11.80
2015,09,23,09,59,11.80
2015,09,23,10,00,11.80
2015,09,23,10,01,11.80
2015,09,23,10,02,11.80
2015,09,23,10,03,11.80
2015,09,23,10,04,11.80
2015,09,23,10,05,11.80
2015,09,23,10,06,11.80
2015,09,23,10,07,11.80
2015,09,23,10,08,11.80
2015,09,23,10,09,11.80
2015,09,23,10,10,11.80
2015,09,23,10,11,11.80
2015,09,23,10,12,11.90
2015,09,23,10,13,11.90
2015,09,23,10,14,11.90
2015,09,23,10,15,12.00
2015,09,23,10,16,12.00
2015,09,23,10,17,12.00
2015,09,23,10,18,12.00
2015,09,23,10,19,12.00
2015,09,23,10,20,12.00
2015,09,23,10,21,12.00
2015,09,23,10,22,12.00
2015,09,23,10,23,12.00
2015,09,23,10,24,12.00
2015,09,23,10,25,12.00
2015,09,23,10,26,12.00
2015,09,23,10,27,12.00
2015,09,23,10,28,12.00
2015,09,23,10,29,11.90
2015,09,23,10,30,11.90
2015,09,23,10,31,11.90
2015,09,23,10,32,12.00
2015,09,23,10,33,12.00
2015,09,23,10,34,12.00
2015,09,23,10,35,12.00
2015,09,23,10,36,12.00
2015,09,23,10,37,12.00
2015,09,23,10,38,12.10
2015,09,23,10,39,12.10
2015,09,23,10,40,12.10
2015,09,23,10,41,12.20
2015,09,23,10,42,12.20
2015,09,23,10,43,12.20
2015,09,23,10,44,12.20
2015,09,23,10,45,12.20
2015,09,23,10,46,12.20
2015,09,23,10,47,12.30
2015,09,23,10,48,12.30
2015,09,23,10,49,12.30
2015,09,23,10,50,12.40
2015,09,23,10,51,12.40
2015,09,23,10,52,12.40
2015,09,23,10,53,12.40
2015,09,23,10,54,12.40
2015,09,23,10,55,12.40
2015,09,23,10,56,12.40
2015,09,23,10,57,12.40
2015,09,23,10,58,12.40
2015,09,23,10,59,12.40
2015,09,23,11,00,12.40
2015,09,23,11,01,12.40
2015,09,23,11,02,12.50
2015,09,23,11,03,12.50
2015,09,23,11,04,12.60
2015,09,23,11,05,12.60
2015,09,23,11,06,12.60
2015,09,23,11,07,12.70
2015,09,23,11,08,12.70
2015,09,23,11,09,12.70
2015,09,23,11,10,12.80
2015,09,23,11,11,12.80
2015,09,23,11,12,12.80
2015,09,23,11,13,12.90
2015,09,23,11,14,12.90
2015,09,23,11,15,12.90
2015,09,23,11,16,12.90
2015,09,23,11,17,12.90
2015,09,23,11,18,13.00
2015,09,23,11,19,13.00
2015,09,23,11,20,13.00
2015,09,23,11,21,13.00
2015,09,23,11,22,13.00
2015,09,23,11,23,13.00
2015,09,23,11,24,12.90
2015,09,23,11,25,12.90
2015,09,23,11,26,13.00
2015,09,23,11,27,13.00
2015,09,23,11,28,13.00
2015,09,23,11,29,13.00
2015,09,23,11,30,13.10
2015,09,23,11,31,13.10
2015,09,23,11,32,13.20
2015,09,23,11,33,13.20
2015,09,23,11,34,13.30
2015,09,23,11,35,13.30
2015,09,23,11,36,13.40
2015,09,23,11,37,13.40
2015,09,23,11,38,13.40
2015,09,23,11,39,13.40
2015,09,23,11,40,13.40
2015,09,23,11,41,13.40
2015,09,23,11,42,13.40
2015,09,23,11,43,13.40
2015,09,23,11,44,13.50
2015,09,23,11,45,13.50
2015,09,23,11,46,13.60
2015,09,23,11,47,13.60
2015,09,23,11,48,13.70
2015,09,23,11,49,13.80
2015,09,23,11,50,13.80
2015,09,23,11,51,13.80
2015,09,23,11,52,13.80
2015,09,23,11,53,13.80
2015,09,23,11,54,13.80
2015,09,23,11,55,13.80
2015,09,23,11,56,13.80
2015,09,23,11,57,13.80
2015,09,23,11,58,13.80
2015,09,23,11,59,13.80
2015,09,23,12,00,13.80
2015,09,23,12,01,13.80
2015,09,23,12,02,13.80
2015,09,23,12,03,13.80
2015,09,23,12,04,13.80
2015,09,23,12,05,13.80
2015,09,23,12,06,13.80
2015,09,23,12,07,13.80
2015,09,23,12,08,13.80
2015,09,23,12,09,13.80
2015,09,23,12,10,13.80
2015,09,23,12,11,13.90
2015,09,23,12,12,13.90
2015,09,23,12,13,13.90
2015,09,23,12,14,13.90
2015,09,23,12,15,14.00
2015,09,23,12,16,14.00
2015,09,23,12,17,14.00
2015,09,23,12,18,14.10
2015,09,23,12,19,14.10
2015,09,23,12,20,14.00
2015,09,23,12,21,14.00
2015,09,23,12,22,14.00
2015,09,23,12,23,14.00
2015,09,23,12,24,14.00
2015,09,23,12,25,14.00
2015,09,23,12,26,14.10
2015,09,23,12,27,14.10
2015,09,23,12,28,14.20
2015,09,23,12,29,14.30
2015,09,23,12,30,14.30
2015,09,23,12,31,14.40
2015,09,23,12,32,14.50
2015,09,23,12,33,14.60
2015,09,23,12,34,14.60
2015,09,23,12,35,14.70
2015,09,23,12,36,14.70
2015,09,23,12,37,14.80
2015,09,23,12,38,14.80
2015,09,23,12,39,14.80
2015,09,23,12,40,14.80
2015,09,23,12,41,14.80
2015,09,23,12,42,14.80
2015,09,23,12,43,14.80
2015,09,23,12,44,14.80
2015,09,23,12,45,14.80
2015,09,23,12,46,14.80
2015,09,23,12,47,14.80
2015,09,23,12,48,14.80
2015,09,23,12,49,14.80
2015,09,23,12,50,14.80
2015,09,23,12,51,14.70
2015,09,23,12,52,14.70
2015,09,23,12,53,14.70
2015,09,23,12,54,14.60
2015,09,23,12,55,14.60
2015,09,23,12,56,14.60
2015,09,23,12,57,14.50
2015,09,23,12,58,14.50
2015,09,23,12,59,14.50
2015,09,23,13,00,14.50
2015,09,23,13,01,14.60
2015,09,23,13,02,14.60
2015,09,23,13,03,14.60
2015,09,23,13,04,14.70
2015,09,23,13,05,14.70
2015,09,23,13,06,14.80
2015,09,23,13,07,14.80
2015,09,23,13,08,14.80
2015,09,23,13,09,14.80
2015,09,23,13,10,14.80
2015,09,23,13,11,14.90
2015,09,23,13,12,14.90
2015,09,23,13,13,14.90
2015,09,23,13,14,14.90
2015,09,23,13,15,15.00
2015,09,23,13,16,15.00
2015,09,23,13,17,15.10
2015,09,23,13,18,15.10
2015,09,23,13,19,15.10
2015,09,23,13,20,15.20
2015,09,23,13,21,15.20
2015,09,23,13,22,15.30
2015,09,23,13,23,15.30
2015,09,23,13,24,15.30
2015,09,23,13,25,15.40
2015,09,23,13,26,15.40
2015,09,23,13,27,15.40
2015,09,23,13,28,15.40
2015,09,23,13,29,15.50
2015,09,23,13,30,15.50
2015,09,23,13,31,15.50
2015,09,23,13,32,15.60
2015,09,23,13,33,15.60
2015,09,23,13,34,15.60
2015,09,23,13,35,15.60
2015,09,23,13,36,15.70
2015,09,23,13,37,15.70
2015,09,23,13,38,15.70
2015,09,23,13,39,15.60
2015,09,23,13,40,15.60
2015,09,23,13,41,15.60
2015,09,23,13,42,15.70
2015,09,23,13,43,15.70
2015,09,23,13,44,15.70
2015,09,23,13,45,15.70
2015,09,23,13,46,15.70
2015,09,23,13,47,15.70
2015,09,23,13,48,15.80
2015,09,23,13,49,15.90
2015,09,23,13,50,16.00
2015,09,23,13,51,16.10
2015,09,23,13,52,16.20
2015,09,23,13,53,16.20
2015,09,23,13,54,16.30
2015,09,23,13,55,16.30
2015,09,23,13,56,16.40
2015,09,23,13,57,16.40
2015,09,23,13,58,16.50
2015,09,23,13,59,16.60
2015,09,23,14,00,16.60
2015,09,23,14,01,16.70
2015,09,23,14,02,16.70
2015,09,23,14,03,16.70
2015,09,23,14,04,16.70
2015,09,23,14,05,16.80
2015,09,23,14,06,16.80
2015,09,23,14,07,16.80
2015,09,23,14,08,16.80
2015,09,23,14,09,16.80
2015,09,23,14,10,16.80
2015,09,23,14,11,16.80
2015,09,23,14,12,16.80
2015,09,23,14,13,16.80
2015,09,23,14,14,16.70
2015,09,23,14,15,16.70
2015,09,23,14,16,16.70
2015,09,23,14,17,16.70
2015,09,23,14,18,16.60
2015,09,23,14,19,16.60
2015,09,23,14,20,16.60
2015,09,23,14,21,16.60
2015,09,23,14,22,16.60
2015,09,23,14,23,16.60
2015,09,23,14,24,16.60
2015,09,23,14,25,16.60
2015,09,23,14,26,16.60
2015,09,23,14,27,16.60
2015,09,23,14,28,16.60
2015,09,23,14,29,16.60
2015,09,23,14,30,16.60
2015,09,23,14,31,16.60
2015,09,23,14,32,16.60
2015,09,23,14,33,16.60
2015,09,23,14,34,16.60
2015,09,23,14,35,16.60
2015,09,23,14,36,16.60
2015,09,23,14,37,16.60
2015,09,23,14,38,16.50
2015,09,23,14,39,16.50
2015,09,23,14,40,16.50
2015,09,23,14,41,16.60
2015,09,23,14,42,16.60
2015,09,23,14,43,16.60
2015,09,23,14,44,16.70
2015,09,23,14,45,16.70
2015,09,23,14,46,16.80
2015,09,23,14,47,16.80
2015,09,23,14,48,16.90
2015,09,23,14,49,17.00
2015,09,23,14,50,17.00
2015,09,23,14,51,17.10
2015,09,23,14,52,17.10
2015,09,23,14,53,17.10
2015,09,23,14,54,17.20
2015,09,23,14,55,17.20
2015,09,23,14,56,17.20
2015,09,23,14,57,17.20
2015,09,23,14,58,17.30
2015,09,23,14,59,17.30
2015,09,23,15,00,17.30
2015,09,23,15,01,17.40
2015,09,23,15,02,17.40
2015,09,23,15,03,17.40
2015,09,23,15,04,17.40
2015,09,23,15,05,17.40
2015,09,23,15,06,17.30
2015,09,23,15,07,17.30
2015,09,23,15,08,17.30
2015,09,23,15,09,17.30
2015,09,23,15,10,17.30
2015,09,23,15,11,17.30
2015,09,23,15,12,17.30
2015,09,23,15,13,17.30
2015,09,23,15,14,17.30
2015,09,23,15,15,17.20
2015,09,23,15,16,17.20
2015,09,23,15,17,17.10
2015,09,23,15,18,17.00
2015,09,23,15,19,16.90
2015,09,23,15,20,16.90
2015,09,23,15,21,16.80
2015,09,23,15,22,16.70
2015,09,23,15,23,16.70
2015,09,23,15,24,16.70
2015,09,23,15,25,16.70
2015,09,23,15,26,16.70
2015,09,23,15,27,16.80
2015,09,23,15,28,16.80
2015,09,23,15,29,16.90
2015,09,23,15,30,16.90
2015,09,23,15,31,16.90
2015,09,23,15,32,17.00
2015,09,23,15,33,17.00
2015,09,23,15,34,17.00
2015,09,23,15,35,17.10
2015,09,23,15,36,17.10
2015,09,23,15,37,17.20
2015,09,23,15,38,17.20
2015,09,23,15,39,17.20
2015,09,23,15,40,17.30
2015,09,23,15,41,17.30
2015,09,23,15,42,17.30
2015,09,23,15,43,17.30
2015,09,23,15,44,17.30
2015,09,23,15,45,17.30
2015,09,23,15,46,17.30
2015,09,23,15,47,17.30
2015,09,23,15,48,17.30
2015,09,23,15,49,17.30
2015,09,23,15,50,17.20
2015,09,23,15,51,17.20
2015,09,23,15,52,17.20
2015,09,23,15,53,17.20
2015,09,23,15,54,17.20
2015,09,23,15,55,17.20
2015,09,23,15,56,17.20
2015,09,23,15,57,17.20
2015,09,23,15,58,17.20
2015,09,23,15,59,17.20
2015,09,23,16,00,17.20
2015,09,23,16,01,17.20
2015,09,23,16,02,17.20
2015,09,23,16,03,17.30
2015,09,23,16,04,17.30
2015,09,23,16,05,17.30
2015,09,23,16,06,17.30
2015,09,23,16,07,17.30
2015,09,23,16,08,17.30
2015,09,23,16,09,17.30
2015,09,23,16,10,17.30
2015,09,23,16,11,17.30
2015,09,23,16,12,17.30
2015,09,23,16,13,17.30
2015,09,23,16,14,17.30
2015,09,23,16,15,17.40
2015,09,23,16,16,17.40
2015,09,23,16,17,17.40
2015,09,23,16,18,17.40
2015,09,23,16,19,17.40
2015,09,23,16,20,17.40
2015,09,23,16,21,17.40
2015,09,23,16,22,17.40
2015,09,23,16,23,17.40
2015,09,23,16,24,17.40
2015,09,23,16,25,17.40
2015,09,23,16,26,17.40
2015,09,23,16,27,17.40
2015,09,23,16,28,17.30
2015,09,23,16,29,17.30
2015,09,23,16,30,17.30
2015,09,23,16,31,17.30
2015,09,23,16,32,17.30
2015,09,23,16,33,17.30
2015,09,23,16,34,17.30
2015,09,23,16,35,17.30
2015,09,23,16,36,17.30
2015,09,23,16,37,17.40
2015,09,23,16,38,17.40
2015,09,23,16,39,17.40
2015,09,23,16,40,17.40
2015,09,23,16,41,17.50
2015,09,23,16,42,17.50
2015,09,23,16,43,17.60
2015,09,23,16,44,17.60
2015,09,23,16,45,17.60
2015,09,23,16,46,17.70
2015,09,23,16,47,17.70
2015,09,23,16,48,17.70
2015,09,23,16,49,17.80
2015,09,23,16,50,17.80
2015,09,23,16,51,17.80
2015,09,23,16,52,17.80
2015,09,23,16,53,17.80
2015,09,23,16,54,17.80
2015,09,23,16,55,17.80
2015,09,23,16,56,17.90
2015,09,23,16,57,17.90
2015,09,23,16,58,17.90
2015,09,23,16,59,17.90
2015,09,23,17,00,17.90
2015,09,23,17,01,17.90
2015,09,23,17,02,17.90
2015,09,23,17,03,18.00
2015,09,23,17,04,18.00
2015,09,23,17,05,18.00
2015,09,23,17,06,18.00
2015,09,23,17,07,18.00
2015,09,23,17,08,18.00
2015,09,23,17,09,18.00
2015,09,23,17,10,18.00
2015,09,23,17,11,18.00
2015,09,23,17,12,18.00
2015,09,23,17,13,18.00
2015,09,23,17,14,18.00
2015,09,23,17,15,18.00
2015,09,23,17,16,18.00
2015,09,23,17,17,18.00
2015,09,23,17,18,18.10
2015,09,23,17,19,18.10
2015,09,23,17,20,18.10
2015,09,23,17,21,18.10
2015,09,23,17,22,18.10
2015,09,23,17,23,18.10
2015,09,23,17,24,18.10
2015,09,23,17,25,18.10
2015,09,23,17,26,18.10
2015,09,23,17,27,18.10
2015,09,23,17,28,18.10
2015,09,23,17,29,18.10
2015,09,23,17,30,18.10
2015,09,23,17,31,18.00
2015,09,23,17,32,18.00
2015,09,23,17,33,17.90
2015,09,23,17,34,17.90
2015,09,23,17,35,17.90
2015,09,23,17,36,17.90
2015,09,23,17,37,17.80